GEFSSE_prec_meanprecacc_222.txt.gz
Total_Precipitation_Accumulation
0.66 0.88 1.34 1.47 1.45 1.41 1.38 1.54 1.60 1.46 1.43 1.41 1.43 1.50 1.63 1.66 1.73 1.72 1.68 1.78 1.84 1.85 1.76 1.55 1.45 1.36 1.35 1.42 1.39 1.29 1.20 1.18 1.35 1.46 1.66 1.90 2.16 2.36 2.54 2.72 2.65 2.07 1.95
0.37 0.56 1.05 1.20 1.23 1.18 1.23 1.31 1.31 1.23 1.26 1.29 1.29 1.34 1.31 1.33 1.38 1.42 1.52 1.69 1.72 1.73 1.60 1.49 1.32 1.19 1.20 1.14 1.15 1.07 1.09 1.34 1.66 1.91 2.27 2.42 2.55 2.58 2.59 2.70 2.73 2.12 1.94
0.24 0.36 0.76 1.03 1.08 1.09 1.12 1.08 1.09 1.11 1.08 1.18 1.21 1.27 1.21 1.16 1.29 1.38 1.50 1.54 1.68 1.66 1.47 1.41 1.23 1.11 1.10 1.05 1.00 1.00 1.16 1.46 2.02 2.49 2.71 2.48 2.17 2.42 2.48 2.61 2.51 1.94 1.82
0.18 0.26 0.52 0.87 0.94 0.94 0.94 0.95 0.97 0.92 0.87 1.00 1.07 1.13 1.19 1.19 1.31 1.43 1.45 1.47 1.67 1.57 1.44 1.35 1.26 1.08 0.97 0.96 1.00 1.10 1.28 1.54 2.03 2.56 2.49 2.20 1.88 2.03 2.17 2.08 2.01 1.78 1.68
0.19 0.23 0.42 0.71 0.83 0.85 0.83 0.92 0.89 0.77 0.80 0.95 1.02 1.02 1.13 1.22 1.30 1.38 1.36 1.47 1.66 1.65 1.53 1.40 1.27 1.06 0.98 0.94 0.97 1.12 1.32 1.68 2.11 2.25 1.88 1.98 2.12 2.03 1.92 1.82 1.84 1.66 1.44
0.20 0.24 0.37 0.62 0.67 0.71 0.70 0.88 0.84 0.79 0.81 0.93 1.02 0.96 1.00 1.10 1.29 1.41 1.39 1.52 1.61 1.56 1.43 1.33 1.18 1.03 0.93 0.91 1.01 1.14 1.44 1.86 1.91 1.56 1.47 1.64 1.58 1.83 1.75 1.71 1.63 1.43 1.20
0.20 0.29 0.34 0.58 0.63 0.70 0.76 0.86 0.85 0.77 0.75 0.86 0.93 0.88 0.96 1.15 1.37 1.51 1.51 1.58 1.58 1.50 1.30 1.17 1.09 1.01 0.92 0.93 1.03 1.10 1.36 1.74 1.59 1.36 1.34 1.50 1.32 1.51 1.64 1.65 1.61 1.35 1.12
0.23 0.33 0.40 0.57 0.65 0.72 0.80 0.82 0.86 0.81 0.78 0.85 0.98 0.96 1.03 1.25 1.45 1.56 1.66 1.73 1.63 1.48 1.23 1.10 0.97 0.88 0.88 0.94 1.03 1.06 1.23 1.36 1.18 1.08 1.12 1.17 1.14 1.28 1.52 1.44 1.40 1.29 1.07
0.42 0.39 0.42 0.52 0.70 0.79 0.90 0.92 0.90 0.90 0.88 0.96 1.14 1.09 1.13 1.25 1.45 1.57 1.68 1.70 1.61 1.47 1.22 1.06 0.91 0.82 0.86 0.88 0.95 1.02 1.19 1.34 1.15 1.14 1.06 1.01 0.98 1.16 1.44 1.33 1.26 1.26 1.12
0.73 0.54 0.52 0.57 0.74 0.87 0.91 0.92 0.97 0.93 0.94 1.00 1.13 1.19 1.38 1.44 1.51 1.57 1.71 1.70 1.59 1.44 1.19 1.06 0.94 0.87 0.90 0.89 0.98 1.13 1.29 1.25 1.18 1.23 1.11 0.81 0.91 1.20 1.47 1.47 1.44 1.43 1.25
1.05 0.95 0.90 0.80 0.77 0.92 0.93 0.93 1.10 1.13 1.16 1.18 1.23 1.43 1.69 2.02 2.05 2.08 2.02 1.90 1.74 1.58 1.44 1.32 1.22 1.09 1.06 1.00 1.23 1.35 1.24 1.30 1.46 1.37 1.16 0.85 0.96 1.42 1.62 1.66 1.60 1.55 1.50
1.33 1.29 1.36 1.14 0.94 0.93 0.92 1.27 1.66 1.62 1.69 1.75 1.81 1.90 2.27 2.52 2.78 2.37 2.46 2.38 2.28 2.18 1.99 1.91 1.90 1.57 1.23 1.08 1.37 1.52 1.35 1.37 1.47 1.23 1.02 0.94 1.11 1.55 1.77 1.67 1.63 1.59 1.58
1.76 1.56 1.41 1.44 1.39 1.40 1.50 1.57 1.72 2.01 2.17 2.22 2.26 2.31 2.55 2.43 2.51 2.45 2.63 2.88 2.73 2.39 2.12 2.26 2.35 1.90 1.76 1.96 1.97 1.78 1.65 1.48 1.52 1.31 1.18 1.18 1.35 1.71 1.93 1.76 1.75 1.68 1.51
2.39 2.33 2.29 2.11 2.01 2.05 1.92 1.74 1.69 1.81 1.91 1.97 2.08 2.18 2.37 2.63 2.62 2.68 2.88 2.74 2.59 2.49 2.65 2.50 2.65 2.46 2.27 2.11 2.06 2.15 2.07 1.80 1.76 1.72 1.67 1.60 1.68 1.90 2.09 1.99 1.90 1.85 1.71
2.91 3.17 3.67 3.48 2.89 2.59 2.34 2.06 1.69 1.75 1.62 1.51 1.68 1.98 2.12 2.29 2.49 2.64 2.50 2.39 2.10 2.22 2.48 2.57 2.32 2.52 2.51 2.47 2.39 2.36 2.35 2.07 1.91 1.87 1.92 2.08 2.04 2.00 2.19 2.26 2.15 2.10 2.05
3.76 3.81 3.98 4.44 3.83 3.12 2.60 2.25 1.95 1.70 1.71 1.62 1.75 1.75 1.95 2.13 2.21 2.28 2.19 2.19 2.07 2.10 2.27 2.27 2.25 2.54 2.66 2.59 2.25 2.08 2.06 2.07 2.00 1.87 2.02 2.13 2.16 1.97 2.08 2.38 2.50 2.46 2.49
4.34 4.47 4.54 4.80 4.48 3.98 3.39 2.78 2.26 2.03 1.77 1.79 1.90 1.69 1.73 1.90 1.97 2.05 2.06 2.01 2.04 1.96 1.98 1.97 2.03 2.24 2.26 2.22 2.04 1.88 1.89 1.94 2.00 1.99 1.92 2.00 2.08 2.13 2.12 2.27 2.48 2.54 2.72
5.01 5.25 5.27 5.02 4.92 4.56 3.91 3.32 2.89 2.62 2.27 2.02 1.90 1.72 1.56 1.64 1.72 1.83 1.74 1.72 1.71 1.65 1.65 1.84 1.90 2.06 2.22 2.26 2.21 1.97 2.00 2.08 1.94 2.02 2.03 1.99 2.26 2.10 2.37 2.51 2.49 2.45 2.75
6.19 6.62 6.40 5.71 5.23 4.77 4.19 3.68 3.50 3.32 2.86 2.37 2.20 2.00 1.81 1.63 1.59 1.68 1.71 1.73 1.47 1.51 1.56 1.50 1.79 1.96 2.21 2.24 1.89 1.91 1.79 1.81 1.83 1.71 1.94 1.85 2.02 2.17 2.39 2.44 2.54 2.45 2.75
6.52 7.23 7.12 6.44 5.57 4.87 4.48 4.05 3.87 3.57 3.09 2.54 2.33 2.22 1.94 1.80 1.59 1.60 1.52 1.46 1.31 1.47 1.66 1.78 2.15 2.08 2.01 2.00 1.66 1.87 1.70 1.49 1.58 1.69 1.69 1.81 1.89 1.74 2.02 2.35 2.60 2.18 2.51
5.52 6.11 5.97 5.35 4.85 4.26 3.74 3.22 3.15 2.98 2.68 2.40 2.14 1.87 1.82 1.78 1.61 1.67 1.59 1.68 1.43 1.46 1.51 1.52 1.72 1.83 1.74 1.74 2.07 2.18 1.79 1.46 1.50 1.52 1.52 1.78 1.86 1.84 2.13 2.52 2.65 2.59 2.26
4.00 4.26 3.76 3.56 3.55 3.15 2.83 2.76 2.67 2.57 2.29 2.06 1.92 1.87 1.52 1.52 1.52 1.46 1.68 1.58 1.49 1.59 1.54 1.52 1.68 1.79 1.72 1.77 1.98 2.22 2.00 2.00 1.77 1.32 1.55 1.67 1.73 1.96 2.08 2.19 2.49 2.75 2.43
2.79 2.78 2.56 2.50 2.81 2.74 2.68 2.60 2.55 2.56 2.45 2.19 1.86 1.82 1.50 1.33 1.35 1.48 1.52 1.59 1.64 1.38 1.55 1.63 1.57 1.62 1.70 1.65 1.66 1.97 2.03 2.06 1.82 1.43 1.39 1.45 1.64 1.92 1.99 2.11 1.99 2.20 2.39
1.90 2.00 2.26 2.33 2.47 2.39 2.44 2.24 2.02 1.88 1.78 1.70 1.63 1.66 1.66 1.44 1.34 1.31 1.38 1.61 1.69 1.46 1.64 1.30 1.39 1.61 1.70 1.57 1.58 1.52 1.55 1.72 1.86 1.82 1.56 1.43 1.52 1.64 1.74 1.84 1.98 2.13 2.24
1.47 1.71 2.10 2.20 2.25 2.20 2.13 2.10 2.10 1.98 1.97 1.84 1.77 1.91 1.90 1.85 1.64 1.39 1.40 1.59 1.71 1.64 1.65 1.52 1.74 1.54 1.44 1.43 1.48 1.54 1.57 1.52 1.42 1.67 1.77 1.68 1.58 1.39 1.41 1.52 1.64 1.74 1.81
1.32 1.43 1.65 1.83 2.03 2.08 2.10 2.15 2.09 2.06 2.13 1.96 1.81 1.73 1.70 1.75 1.68 1.60 1.58 1.77 1.77 1.71 1.70 1.63 1.67 1.58 1.55 1.55 1.46 1.42 1.66 1.65 1.52 1.65 1.56 1.56 1.54 1.25 1.23 1.34 1.40 1.47 1.60

GEFSSE_prec_meanprecacc_228.txt.gz
Total_Precipitation_Accumulation
0.75 1.00 1.51 1.65 1.61 1.55 1.52 1.71 1.80 1.64 1.61 1.58 1.58 1.63 1.78 1.83 1.94 1.93 1.84 1.92 1.99 2.01 1.89 1.66 1.57 1.47 1.44 1.52 1.50 1.40 1.29 1.25 1.41 1.52 1.72 1.95 2.21 2.40 2.58 2.74 2.66 2.08 1.96
0.45 0.66 1.18 1.37 1.40 1.33 1.38 1.48 1.52 1.45 1.45 1.47 1.46 1.49 1.46 1.50 1.56 1.59 1.67 1.81 1.85 1.87 1.71 1.59 1.41 1.25 1.25 1.22 1.26 1.16 1.15 1.40 1.71 1.96 2.32 2.46 2.59 2.62 2.63 2.73 2.75 2.14 1.96
0.30 0.43 0.87 1.18 1.25 1.25 1.27 1.22 1.25 1.28 1.27 1.36 1.38 1.42 1.36 1.33 1.46 1.53 1.65 1.66 1.82 1.79 1.59 1.50 1.29 1.15 1.14 1.11 1.05 1.05 1.20 1.53 2.08 2.54 2.74 2.49 2.18 2.44 2.51 2.63 2.53 1.98 1.84
0.22 0.32 0.61 0.99 1.08 1.05 1.06 1.08 1.09 1.05 1.01 1.16 1.23 1.30 1.35 1.35 1.46 1.57 1.58 1.60 1.81 1.69 1.55 1.43 1.32 1.12 1.00 0.99 1.02 1.13 1.33 1.61 2.10 2.61 2.50 2.21 1.90 2.05 2.19 2.09 2.03 1.79 1.69
0.21 0.27 0.47 0.77 0.91 0.93 0.91 1.01 0.97 0.84 0.88 1.06 1.19 1.22 1.32 1.40 1.47 1.54 1.52 1.61 1.80 1.78 1.63 1.47 1.32 1.11 1.01 0.97 0.98 1.14 1.37 1.74 2.16 2.29 1.90 2.00 2.14 2.05 1.93 1.83 1.85 1.67 1.44
0.21 0.26 0.40 0.65 0.72 0.77 0.76 0.94 0.90 0.84 0.87 1.01 1.15 1.12 1.17 1.28 1.49 1.59 1.55 1.67 1.74 1.66 1.51 1.39 1.21 1.06 0.95 0.94 1.03 1.17 1.48 1.90 1.96 1.59 1.49 1.66 1.60 1.84 1.76 1.73 1.65 1.45 1.21
0.21 0.31 0.35 0.59 0.67 0.74 0.81 0.92 0.92 0.83 0.79 0.90 1.00 0.97 1.05 1.27 1.49 1.65 1.67 1.72 1.71 1.62 1.38 1.22 1.13 1.03 0.94 0.96 1.06 1.13 1.39 1.78 1.64 1.39 1.37 1.51 1.34 1.52 1.65 1.66 1.62 1.36 1.13
0.24 0.36 0.42 0.59 0.67 0.75 0.82 0.88 0.92 0.85 0.82 0.89 1.02 1.00 1.08 1.32 1.54 1.67 1.77 1.86 1.75 1.59 1.31 1.15 1.00 0.91 0.90 0.96 1.06 1.09 1.26 1.41 1.22 1.13 1.14 1.18 1.16 1.30 1.53 1.45 1.41 1.29 1.08
0.43 0.40 0.44 0.53 0.72 0.82 0.92 0.99 0.98 0.95 0.91 1.01 1.19 1.13 1.17 1.31 1.52 1.64 1.78 1.86 1.72 1.56 1.30 1.11 0.94 0.85 0.88 0.90 0.98 1.04 1.23 1.40 1.20 1.21 1.12 1.03 1.00 1.18 1.45 1.34 1.27 1.27 1.13
0.75 0.56 0.53 0.58 0.77 0.89 0.94 0.98 1.07 0.99 0.98 1.06 1.20 1.24 1.43 1.49 1.57 1.63 1.84 1.85 1.69 1.53 1.25 1.11 0.98 0.89 0.91 0.91 1.00 1.16 1.34 1.31 1.23 1.29 1.16 0.83 0.93 1.22 1.48 1.48 1.45 1.45 1.26
1.07 0.98 0.93 0.82 0.80 0.94 0.95 0.97 1.20 1.21 1.20 1.23 1.30 1.50 1.74 2.06 2.09 2.16 2.18 2.02 1.85 1.67 1.51 1.37 1.26 1.11 1.08 1.02 1.25 1.38 1.28 1.34 1.52 1.44 1.20 0.88 0.98 1.44 1.64 1.67 1.61 1.57 1.52
1.35 1.30 1.39 1.17 0.97 0.97 0.95 1.29 1.70 1.66 1.72 1.78 1.84 1.94 2.33 2.57 2.84 2.49 2.62 2.51 2.41 2.30 2.07 1.98 1.95 1.60 1.26 1.09 1.39 1.55 1.38 1.41 1.56 1.32 1.07 0.98 1.13 1.57 1.79 1.69 1.65 1.60 1.59
1.77 1.57 1.43 1.49 1.43 1.43 1.51 1.58 1.74 2.03 2.19 2.25 2.28 2.33 2.58 2.49 2.60 2.58 2.78 3.03 2.88 2.52 2.21 2.33 2.39 1.91 1.78 1.97 1.98 1.80 1.68 1.52 1.58 1.36 1.23 1.25 1.37 1.73 1.96 1.79 1.77 1.70 1.52
2.39 2.34 2.30 2.15 2.05 2.06 1.94 1.76 1.71 1.82 1.93 1.99 2.10 2.20 2.40 2.69 2.74 2.82 3.02 2.88 2.72 2.58 2.73 2.56 2.69 2.48 2.29 2.13 2.07 2.17 2.10 1.83 1.79 1.74 1.70 1.65 1.71 1.93 2.12 2.02 1.92 1.88 1.73
2.91 3.18 3.68 3.51 2.92 2.61 2.36 2.09 1.71 1.77 1.64 1.53 1.69 2.01 2.17 2.37 2.61 2.75 2.59 2.48 2.17 2.28 2.53 2.62 2.36 2.55 2.53 2.49 2.41 2.38 2.38 2.11 1.94 1.90 1.94 2.11 2.07 2.03 2.22 2.29 2.17 2.12 2.08
3.76 3.81 4.00 4.49 3.87 3.15 2.63 2.28 1.99 1.73 1.73 1.65 1.77 1.77 1.99 2.18 2.27 2.34 2.23 2.22 2.10 2.15 2.31 2.30 2.28 2.58 2.69 2.61 2.27 2.10 2.09 2.10 2.03 1.91 2.05 2.16 2.19 2.00 2.12 2.42 2.54 2.49 2.52
4.34 4.47 4.55 4.86 4.54 4.02 3.42 2.82 2.31 2.06 1.81 1.83 1.94 1.72 1.76 1.94 2.01 2.08 2.09 2.04 2.08 1.98 2.01 2.00 2.07 2.27 2.28 2.25 2.07 1.91 1.93 1.97 2.03 2.02 1.96 2.04 2.11 2.16 2.14 2.31 2.52 2.58 2.76
5.01 5.25 5.27 5.04 4.99 4.63 3.96 3.37 2.95 2.67 2.32 2.06 1.94 1.77 1.59 1.68 1.76 1.86 1.77 1.75 1.74 1.67 1.67 1.87 1.94 2.10 2.25 2.29 2.26 2.02 2.05 2.11 1.97 2.05 2.07 2.03 2.29 2.13 2.39 2.54 2.53 2.50 2.82
6.19 6.62 6.40 5.72 5.28 4.85 4.26 3.73 3.57 3.37 2.92 2.41 2.23 2.03 1.85 1.67 1.64 1.72 1.74 1.77 1.51 1.54 1.58 1.53 1.82 1.99 2.25 2.29 1.94 1.97 1.85 1.86 1.87 1.74 1.98 1.90 2.08 2.22 2.44 2.49 2.58 2.48 2.80
6.52 7.23 7.12 6.45 5.59 4.91 4.56 4.11 3.93 3.61 3.15 2.59 2.37 2.25 1.98 1.84 1.63 1.65 1.56 1.50 1.35 1.50 1.69 1.82 2.20 2.13 2.05 2.04 1.70 1.92 1.76 1.54 1.62 1.73 1.73 1.85 1.94 1.80 2.09 2.41 2.64 2.21 2.55
5.52 6.11 5.97 5.35 4.86 4.29 3.79 3.28 3.20 3.02 2.72 2.45 2.19 1.91 1.86 1.81 1.64 1.71 1.64 1.73 1.47 1.50 1.56 1.57 1.76 1.88 1.79 1.79 2.13 2.24 1.85 1.53 1.57 1.58 1.59 1.84 1.91 1.91 2.23 2.62 2.75 2.67 2.32
4.00 4.26 3.76 3.57 3.56 3.16 2.85 2.80 2.73 2.61 2.33 2.11 1.97 1.91 1.55 1.55 1.54 1.49 1.72 1.63 1.54 1.64 1.60 1.60 1.74 1.84 1.78 1.83 2.05 2.30 2.07 2.07 1.85 1.39 1.63 1.77 1.81 2.04 2.15 2.28 2.58 2.85 2.52
2.79 2.78 2.56 2.50 2.81 2.74 2.69 2.63 2.62 2.61 2.49 2.23 1.90 1.85 1.53 1.37 1.39 1.53 1.56 1.64 1.70 1.42 1.60 1.69 1.63 1.68 1.75 1.70 1.73 2.05 2.09 2.11 1.87 1.48 1.44 1.51 1.70 2.00 2.08 2.20 2.08 2.30 2.48
1.91 2.01 2.26 2.35 2.49 2.40 2.46 2.28 2.09 1.92 1.82 1.73 1.67 1.71 1.70 1.50 1.39 1.35 1.42 1.65 1.74 1.50 1.68 1.35 1.44 1.67 1.76 1.63 1.65 1.58 1.60 1.77 1.91 1.86 1.60 1.48 1.58 1.74 1.87 1.96 2.10 2.29 2.42
1.50 1.73 2.12 2.22 2.28 2.22 2.15 2.13 2.12 2.00 1.99 1.88 1.81 1.96 1.94 1.91 1.71 1.41 1.43 1.63 1.75 1.68 1.69 1.56 1.77 1.59 1.50 1.49 1.55 1.60 1.62 1.57 1.48 1.72 1.81 1.72 1.64 1.47 1.51 1.62 1.72 1.84 1.92
1.36 1.45 1.67 1.85 2.04 2.10 2.11 2.16 2.10 2.07 2.14 2.00 1.85 1.77 1.73 1.79 1.74 1.64 1.62 1.81 1.81 1.75 1.75 1.67 1.71 1.63 1.61 1.60 1.52 1.48 1.72 1.71 1.58 1.70 1.60 1.60 1.59 1.30 1.29 1.40 1.46 1.53 1.65

GEFSSE_prec_meanprecacc_234.txt.gz
Total_Precipitation_Accumulation
0.90 1.18 1.77 1.93 1.82 1.71 1.71 1.92 2.06 1.96 1.92 1.86 1.81 1.86 2.01 2.01 2.09 2.07 1.97 2.03 2.11 2.16 2.02 1.78 1.68 1.61 1.62 1.67 1.62 1.50 1.38 1.33 1.50 1.65 1.84 2.02 2.25 2.44 2.60 2.77 2.69 2.10 1.99
0.58 0.85 1.46 1.69 1.61 1.50 1.55 1.65 1.72 1.67 1.66 1.68 1.67 1.72 1.67 1.66 1.71 1.76 1.81 1.92 1.98 2.00 1.82 1.69 1.55 1.40 1.39 1.35 1.37 1.25 1.23 1.48 1.80 2.06 2.42 2.53 2.64 2.67 2.67 2.76 2.77 2.16 1.99
0.40 0.59 1.15 1.46 1.44 1.42 1.43 1.39 1.44 1.45 1.43 1.53 1.56 1.62 1.53 1.48 1.61 1.69 1.77 1.77 1.94 1.92 1.69 1.58 1.40 1.27 1.26 1.22 1.15 1.12 1.27 1.60 2.15 2.60 2.78 2.52 2.22 2.51 2.58 2.67 2.56 2.01 1.88
0.30 0.44 0.78 1.16 1.24 1.22 1.21 1.25 1.26 1.21 1.16 1.29 1.39 1.46 1.50 1.47 1.61 1.71 1.71 1.72 1.92 1.81 1.66 1.51 1.39 1.20 1.09 1.07 1.09 1.19 1.39 1.66 2.14 2.64 2.52 2.22 1.92 2.10 2.23 2.13 2.06 1.82 1.72
0.28 0.34 0.58 0.90 1.03 1.06 1.05 1.18 1.14 1.01 1.03 1.19 1.34 1.37 1.47 1.52 1.60 1.69 1.65 1.73 1.92 1.91 1.74 1.55 1.39 1.17 1.07 1.02 1.03 1.19 1.42 1.79 2.19 2.30 1.90 2.01 2.16 2.08 1.96 1.86 1.87 1.70 1.46
0.28 0.34 0.51 0.77 0.83 0.87 0.87 1.07 1.06 1.00 1.01 1.14 1.29 1.26 1.31 1.41 1.62 1.73 1.69 1.80 1.86 1.81 1.62 1.47 1.29 1.12 1.00 0.98 1.09 1.21 1.53 1.94 1.97 1.60 1.49 1.66 1.61 1.87 1.78 1.75 1.67 1.47 1.22
0.27 0.36 0.43 0.69 0.77 0.85 0.92 1.05 1.06 0.98 0.94 1.05 1.14 1.11 1.22 1.44 1.64 1.79 1.81 1.87 1.85 1.76 1.49 1.32 1.21 1.09 0.98 0.99 1.11 1.17 1.45 1.83 1.65 1.40 1.37 1.52 1.35 1.54 1.67 1.68 1.65 1.40 1.14
0.27 0.37 0.46 0.65 0.75 0.83 0.92 1.00 1.05 1.00 0.97 1.05 1.18 1.15 1.25 1.49 1.69 1.83 1.93 2.02 1.90 1.74 1.42 1.24 1.08 0.96 0.93 0.99 1.10 1.14 1.33 1.44 1.23 1.13 1.15 1.19 1.18 1.32 1.54 1.46 1.43 1.32 1.10
0.46 0.42 0.45 0.56 0.76 0.87 0.99 1.06 1.08 1.06 1.03 1.15 1.33 1.25 1.33 1.52 1.72 1.82 1.96 2.03 1.88 1.68 1.39 1.18 0.99 0.89 0.92 0.94 1.01 1.08 1.26 1.42 1.21 1.22 1.12 1.03 1.02 1.19 1.46 1.35 1.28 1.29 1.16
0.77 0.59 0.56 0.60 0.80 0.94 0.99 1.05 1.16 1.09 1.07 1.17 1.32 1.36 1.60 1.70 1.76 1.82 2.02 2.04 1.86 1.65 1.35 1.18 1.03 0.93 0.95 0.94 1.03 1.19 1.37 1.33 1.25 1.30 1.17 0.84 0.94 1.24 1.51 1.50 1.47 1.47 1.29
1.10 1.00 0.95 0.84 0.81 0.97 0.99 1.05 1.36 1.37 1.30 1.31 1.39 1.61 1.88 2.18 2.23 2.34 2.34 2.22 2.05 1.81 1.61 1.45 1.31 1.15 1.11 1.05 1.29 1.41 1.30 1.35 1.53 1.45 1.21 0.89 0.99 1.46 1.68 1.72 1.65 1.62 1.54
1.36 1.32 1.41 1.18 0.98 0.98 0.97 1.39 1.94 1.88 1.81 1.82 1.88 2.00 2.38 2.62 2.91 2.58 2.79 2.75 2.63 2.45 2.19 2.08 2.02 1.65 1.28 1.11 1.41 1.57 1.39 1.41 1.57 1.33 1.08 0.99 1.15 1.59 1.83 1.74 1.71 1.67 1.62
1.77 1.58 1.46 1.50 1.44 1.43 1.53 1.64 1.88 2.21 2.27 2.27 2.31 2.34 2.60 2.52 2.65 2.66 2.95 3.28 3.09 2.66 2.31 2.42 2.44 1.93 1.79 1.98 1.98 1.80 1.68 1.53 1.59 1.36 1.24 1.26 1.39 1.76 2.00 1.84 1.82 1.76 1.57
2.40 2.35 2.34 2.18 2.06 2.07 1.95 1.79 1.77 1.92 1.97 2.01 2.12 2.22 2.42 2.73 2.79 2.91 3.17 3.09 2.85 2.66 2.79 2.61 2.72 2.49 2.30 2.14 2.08 2.18 2.11 1.85 1.80 1.75 1.71 1.67 1.73 1.95 2.17 2.07 1.97 1.92 1.78
2.91 3.18 3.70 3.56 2.94 2.62 2.38 2.11 1.74 1.80 1.67 1.56 1.73 2.05 2.21 2.42 2.67 2.82 2.71 2.59 2.23 2.33 2.57 2.64 2.37 2.56 2.53 2.51 2.42 2.39 2.39 2.12 1.95 1.90 1.94 2.13 2.10 2.07 2.27 2.35 2.23 2.17 2.12
3.77 3.81 4.00 4.52 3.89 3.17 2.64 2.31 2.02 1.77 1.79 1.71 1.84 1.84 2.06 2.25 2.33 2.40 2.31 2.28 2.14 2.19 2.34 2.32 2.29 2.59 2.70 2.63 2.29 2.12 2.11 2.12 2.04 1.92 2.06 2.18 2.22 2.04 2.16 2.47 2.62 2.56 2.57
4.34 4.48 4.56 4.88 4.56 4.04 3.44 2.85 2.35 2.12 1.88 1.90 2.00 1.78 1.82 2.00 2.04 2.11 2.13 2.07 2.10 2.00 2.03 2.02 2.08 2.29 2.30 2.27 2.10 1.94 1.94 1.98 2.05 2.05 1.97 2.05 2.13 2.19 2.18 2.34 2.58 2.65 2.82
5.01 5.25 5.28 5.06 5.01 4.65 3.98 3.39 2.97 2.70 2.36 2.09 1.96 1.80 1.63 1.72 1.79 1.89 1.80 1.78 1.77 1.69 1.69 1.90 1.97 2.13 2.27 2.31 2.28 2.04 2.07 2.12 1.98 2.07 2.09 2.05 2.32 2.16 2.42 2.58 2.58 2.55 2.89
6.19 6.62 6.40 5.74 5.30 4.86 4.28 3.76 3.60 3.41 2.97 2.44 2.25 2.07 1.88 1.70 1.66 1.74 1.76 1.79 1.53 1.56 1.60 1.55 1.85 2.02 2.28 2.32 1.97 1.99 1.86 1.87 1.88 1.75 1.99 1.91 2.11 2.25 2.47 2.53 2.63 2.53 2.86
6.53 7.23 7.12 6.46 5.61 4.95 4.60 4.16 3.99 3.66 3.19 2.62 2.38 2.28 2.01 1.87 1.66 1.68 1.58 1.52 1.37 1.52 1.72 1.83 2.22 2.15 2.08 2.08 1.73 1.95 1.79 1.56 1.64 1.75 1.75 1.86 1.98 1.85 2.14 2.47 2.68 2.25 2.61
5.53 6.11 5.98 5.37 4.88 4.35 3.88 3.35 3.28 3.09 2.78 2.49 2.21 1.94 1.90 1.85 1.68 1.74 1.66 1.75 1.49 1.53 1.59 1.59 1.80 1.92 1.83 1.83 2.16 2.26 1.88 1.55 1.60 1.60 1.61 1.86 1.93 1.95 2.28 2.68 2.80 2.71 2.36
4.02 4.28 3.77 3.57 3.57 3.24 2.96 2.89 2.82 2.69 2.39 2.16 2.01 1.95 1.61 1.60 1.59 1.53 1.74 1.65 1.57 1.68 1.66 1.65 1.79 1.89 1.83 1.87 2.09 2.35 2.10 2.10 1.88 1.41 1.65 1.79 1.83 2.05 2.18 2.32 2.63 2.89 2.56
2.82 2.81 2.57 2.51 2.83 2.82 2.77 2.72 2.69 2.68 2.54 2.28 1.96 1.92 1.59 1.43 1.45 1.56 1.59 1.67 1.74 1.47 1.67 1.78 1.71 1.75 1.80 1.75 1.78 2.11 2.14 2.13 1.89 1.50 1.46 1.53 1.73 2.03 2.11 2.24 2.12 2.34 2.52
1.93 2.04 2.28 2.36 2.50 2.43 2.49 2.33 2.14 1.97 1.86 1.78 1.73 1.78 1.77 1.56 1.45 1.40 1.46 1.70 1.81 1.58 1.76 1.44 1.53 1.75 1.83 1.69 1.71 1.63 1.65 1.81 1.94 1.89 1.62 1.49 1.60 1.76 1.90 2.00 2.15 2.34 2.46
1.52 1.77 2.16 2.25 2.29 2.23 2.19 2.21 2.19 2.05 2.04 1.93 1.87 2.03 2.01 1.98 1.78 1.48 1.48 1.69 1.82 1.76 1.79 1.67 1.87 1.68 1.57 1.55 1.60 1.65 1.67 1.62 1.52 1.77 1.85 1.74 1.65 1.49 1.54 1.65 1.77 1.90 1.97
1.38 1.49 1.74 1.89 2.06 2.11 2.15 2.23 2.14 2.10 2.18 2.03 1.91 1.85 1.80 1.85 1.79 1.68 1.67 1.87 1.87 1.81 1.84 1.77 1.80 1.71 1.68 1.68 1.60 1.56 1.79 1.78 1.64 1.75 1.64 1.63 1.61 1.32 1.31 1.42 1.50 1.57 1.69

GEFSSE_prec_meanprecacc_240.txt.gz
Total_Precipitation_Accumulation
1.05 1.43 2.07 2.20 2.09 1.97 1.93 2.15 2.29 2.16 2.10 2.04 1.98 2.00 2.14 2.15 2.22 2.18 2.07 2.10 2.17 2.23 2.09 1.86 1.76 1.69 1.70 1.75 1.69 1.57 1.46 1.42 1.61 1.77 1.93 2.09 2.28 2.46 2.62 2.77 2.70 2.12 2.01
0.80 1.19 1.79 1.95 1.84 1.73 1.76 1.88 1.99 1.91 1.84 1.86 1.86 1.90 1.83 1.81 1.88 1.91 1.92 2.01 2.06 2.09 1.91 1.77 1.62 1.45 1.46 1.46 1.47 1.33 1.32 1.58 1.92 2.16 2.48 2.59 2.68 2.69 2.69 2.77 2.78 2.18 2.01
0.66 0.89 1.43 1.70 1.65 1.63 1.63 1.59 1.65 1.66 1.63 1.76 1.81 1.84 1.72 1.65 1.78 1.84 1.91 1.89 2.06 2.03 1.78 1.66 1.46 1.32 1.33 1.34 1.26 1.21 1.36 1.72 2.27 2.67 2.83 2.57 2.27 2.54 2.59 2.68 2.57 2.02 1.90
0.54 0.65 1.01 1.40 1.45 1.42 1.39 1.40 1.43 1.40 1.38 1.54 1.64 1.68 1.68 1.64 1.79 1.87 1.85 1.86 2.07 1.92 1.76 1.59 1.46 1.28 1.19 1.20 1.21 1.28 1.48 1.78 2.23 2.69 2.56 2.26 1.94 2.11 2.25 2.16 2.09 1.84 1.73
0.45 0.50 0.76 1.11 1.21 1.27 1.27 1.37 1.31 1.19 1.23 1.41 1.53 1.59 1.64 1.69 1.81 1.88 1.83 1.88 2.04 2.04 1.86 1.64 1.49 1.27 1.20 1.16 1.16 1.30 1.52 1.88 2.24 2.32 1.93 2.04 2.19 2.11 1.98 1.89 1.92 1.73 1.48
0.43 0.49 0.67 0.93 1.00 1.10 1.15 1.33 1.27 1.20 1.20 1.32 1.46 1.47 1.51 1.60 1.83 1.92 1.86 1.94 1.97 1.93 1.74 1.57 1.40 1.22 1.11 1.10 1.22 1.32 1.61 1.99 2.00 1.62 1.51 1.68 1.64 1.89 1.80 1.77 1.70 1.49 1.23
0.43 0.52 0.56 0.82 0.93 1.08 1.21 1.32 1.32 1.21 1.12 1.21 1.30 1.29 1.41 1.63 1.87 2.02 2.01 2.00 1.95 1.88 1.62 1.43 1.31 1.16 1.06 1.10 1.23 1.27 1.51 1.86 1.67 1.42 1.39 1.54 1.38 1.56 1.69 1.70 1.68 1.43 1.16
0.40 0.51 0.58 0.77 0.86 0.97 1.15 1.28 1.36 1.22 1.14 1.22 1.37 1.35 1.44 1.66 1.88 2.04 2.13 2.16 2.03 1.88 1.56 1.36 1.18 1.03 1.01 1.08 1.21 1.24 1.40 1.47 1.25 1.15 1.17 1.22 1.21 1.35 1.56 1.48 1.46 1.35 1.11
0.54 0.52 0.57 0.67 0.85 0.96 1.14 1.29 1.35 1.32 1.26 1.37 1.53 1.45 1.51 1.69 1.91 2.02 2.17 2.20 2.02 1.86 1.57 1.33 1.11 0.97 1.01 1.03 1.14 1.22 1.36 1.47 1.25 1.25 1.14 1.06 1.04 1.22 1.49 1.37 1.30 1.31 1.18
0.83 0.66 0.64 0.66 0.88 1.03 1.09 1.20 1.36 1.34 1.32 1.39 1.52 1.55 1.79 1.91 1.98 2.04 2.23 2.26 2.03 1.81 1.49 1.34 1.16 1.01 1.02 1.01 1.12 1.29 1.47 1.40 1.29 1.33 1.19 0.86 0.96 1.27 1.54 1.54 1.50 1.51 1.32
1.12 1.03 0.98 0.87 0.86 1.03 1.06 1.15 1.49 1.55 1.53 1.57 1.64 1.89 2.19 2.47 2.50 2.59 2.55 2.48 2.28 1.96 1.75 1.60 1.43 1.23 1.17 1.10 1.35 1.47 1.34 1.39 1.57 1.48 1.23 0.92 1.02 1.50 1.73 1.77 1.71 1.68 1.61
1.37 1.33 1.45 1.22 1.02 1.02 1.02 1.48 2.05 2.03 2.00 2.06 2.20 2.32 2.65 2.88 3.16 2.76 2.99 3.03 2.91 2.68 2.39 2.25 2.16 1.73 1.33 1.15 1.46 1.61 1.41 1.43 1.59 1.35 1.10 1.02 1.18 1.63 1.88 1.79 1.76 1.73 1.69
1.78 1.59 1.47 1.53 1.47 1.47 1.58 1.70 1.96 2.34 2.43 2.45 2.49 2.51 2.77 2.69 2.83 2.83 3.17 3.56 3.46 2.95 2.54 2.61 2.58 2.00 1.82 2.00 2.00 1.82 1.70 1.53 1.60 1.37 1.24 1.27 1.41 1.78 2.03 1.88 1.87 1.81 1.61
2.40 2.35 2.35 2.20 2.11 2.13 2.00 1.83 1.85 2.05 2.09 2.10 2.22 2.31 2.51 2.84 2.92 3.05 3.34 3.30 3.15 2.92 3.00 2.76 2.81 2.55 2.34 2.16 2.10 2.20 2.13 1.86 1.81 1.76 1.72 1.68 1.75 1.98 2.19 2.10 1.99 1.96 1.82
2.92 3.18 3.71 3.59 3.01 2.69 2.43 2.15 1.82 1.95 1.80 1.62 1.79 2.11 2.28 2.51 2.78 2.94 2.84 2.81 2.48 2.53 2.71 2.75 2.44 2.61 2.57 2.53 2.45 2.41 2.42 2.14 1.96 1.91 1.95 2.14 2.11 2.09 2.30 2.38 2.27 2.21 2.16
3.77 3.82 4.02 4.56 3.93 3.20 2.68 2.36 2.10 1.89 1.92 1.78 1.91 1.91 2.14 2.35 2.42 2.48 2.42 2.48 2.32 2.36 2.44 2.39 2.34 2.63 2.74 2.66 2.32 2.14 2.13 2.14 2.05 1.93 2.07 2.20 2.24 2.05 2.19 2.52 2.69 2.64 2.63
4.35 4.48 4.57 4.90 4.60 4.07 3.47 2.89 2.42 2.23 1.99 1.99 2.09 1.87 1.93 2.09 2.13 2.20 2.24 2.22 2.24 2.15 2.13 2.07 2.12 2.33 2.33 2.30 2.14 1.97 1.98 2.02 2.07 2.06 1.99 2.08 2.16 2.21 2.20 2.38 2.62 2.70 2.87
5.02 5.26 5.29 5.07 5.07 4.69 4.01 3.41 3.01 2.75 2.42 2.15 2.03 1.89 1.73 1.81 1.87 1.98 1.90 1.88 1.86 1.78 1.76 1.95 2.01 2.16 2.31 2.36 2.34 2.08 2.12 2.17 2.02 2.10 2.12 2.08 2.37 2.20 2.45 2.60 2.61 2.59 2.93
6.19 6.62 6.41 5.76 5.36 4.89 4.30 3.78 3.63 3.44 3.01 2.49 2.30 2.12 1.94 1.75 1.71 1.82 1.85 1.89 1.60 1.60 1.64 1.58 1.90 2.06 2.33 2.39 2.02 2.05 1.92 1.91 1.93 1.79 2.02 1.94 2.14 2.28 2.50 2.55 2.65 2.56 2.90
6.53 7.23 7.13 6.48 5.67 4.98 4.63 4.19 4.02 3.69 3.22 2.65 2.42 2.32 2.04 1.90 1.70 1.73 1.65 1.60 1.41 1.55 1.75 1.87 2.28 2.21 2.15 2.17 1.80 2.00 1.84 1.59 1.68 1.78 1.77 1.89 2.01 1.87 2.15 2.48 2.71 2.28 2.64
5.54 6.12 5.99 5.39 4.92 4.38 3.91 3.38 3.31 3.12 2.81 2.52 2.24 1.98 1.94 1.88 1.72 1.80 1.71 1.82 1.54 1.57 1.63 1.63 1.86 2.00 1.91 1.91 2.25 2.34 1.93 1.57 1.62 1.63 1.64 1.89 1.96 1.97 2.30 2.71 2.85 2.75 2.39
4.03 4.28 3.78 3.58 3.59 3.27 2.99 2.92 2.85 2.72 2.42 2.20 2.05 1.99 1.64 1.64 1.63 1.58 1.80 1.71 1.63 1.74 1.72 1.72 1.88 2.00 1.93 1.97 2.19 2.45 2.18 2.16 1.91 1.43 1.68 1.81 1.85 2.07 2.19 2.34 2.66 2.92 2.60
2.83 2.81 2.58 2.52 2.85 2.86 2.81 2.77 2.75 2.73 2.59 2.34 2.03 1.98 1.65 1.48 1.50 1.61 1.64 1.74 1.81 1.54 1.73 1.86 1.82 1.89 1.94 1.87 1.88 2.21 2.22 2.20 1.95 1.53 1.48 1.55 1.75 2.06 2.13 2.26 2.13 2.36 2.54
1.94 2.05 2.30 2.38 2.52 2.47 2.56 2.41 2.23 2.04 1.92 1.84 1.80 1.86 1.86 1.63 1.51 1.44 1.51 1.76 1.88 1.64 1.83 1.50 1.61 1.86 1.97 1.81 1.82 1.74 1.72 1.86 2.00 1.94 1.67 1.53 1.63 1.81 1.94 2.03 2.18 2.37 2.48
1.53 1.78 2.18 2.27 2.31 2.25 2.22 2.26 2.29 2.13 2.09 1.99 1.94 2.11 2.09 2.07 1.84 1.52 1.53 1.75 1.89 1.83 1.87 1.74 1.95 1.79 1.71 1.68 1.71 1.75 1.75 1.69 1.60 1.84 1.94 1.82 1.71 1.53 1.56 1.68 1.79 1.92 1.99
1.39 1.50 1.76 1.91 2.08 2.14 2.19 2.28 2.24 2.20 2.26 2.11 1.99 1.93 1.88 1.93 1.86 1.73 1.72 1.92 1.92 1.87 1.91 1.86 1.89 1.79 1.76 1.77 1.69 1.64 1.88 1.88 1.75 1.87 1.75 1.74 1.70 1.37 1.34 1.45 1.52 1.60 1.72

GEFSSE_prec_meanprecacc_246.txt.gz
Total_Precipitation_Accumulation
1.13 1.58 2.35 2.49 2.29 2.13 2.12 2.28 2.37 2.25 2.22 2.15 2.09 2.12 2.22 2.25 2.34 2.29 2.17 2.22 2.26 2.29 2.14 1.91 1.81 1.73 1.74 1.80 1.73 1.60 1.50 1.49 1.70 1.84 2.00 2.16 2.36 2.52 2.67 2.81 2.73 2.14 2.02
0.91 1.38 2.11 2.21 2.02 1.88 1.96 2.01 2.10 2.03 1.95 1.97 1.98 2.00 1.91 1.91 2.02 2.03 2.04 2.12 2.15 2.18 1.98 1.84 1.68 1.50 1.49 1.50 1.52 1.38 1.38 1.67 2.01 2.25 2.58 2.68 2.75 2.73 2.72 2.81 2.82 2.20 2.02
0.84 1.12 1.68 1.90 1.80 1.76 1.79 1.72 1.77 1.79 1.76 1.92 1.95 1.92 1.80 1.73 1.93 2.02 2.06 2.01 2.15 2.12 1.85 1.74 1.53 1.36 1.36 1.38 1.31 1.28 1.43 1.81 2.36 2.77 2.93 2.65 2.32 2.55 2.61 2.71 2.59 2.04 1.91
0.76 0.88 1.22 1.59 1.60 1.54 1.53 1.56 1.59 1.56 1.55 1.71 1.75 1.76 1.75 1.71 1.92 2.08 2.03 1.98 2.16 2.00 1.83 1.66 1.53 1.33 1.22 1.24 1.26 1.35 1.55 1.88 2.33 2.81 2.69 2.34 1.97 2.13 2.28 2.19 2.11 1.86 1.75
0.65 0.71 1.00 1.31 1.37 1.40 1.42 1.54 1.51 1.37 1.39 1.57 1.66 1.68 1.71 1.78 1.92 2.07 2.00 2.00 2.14 2.14 1.95 1.72 1.56 1.34 1.26 1.21 1.22 1.39 1.63 1.98 2.33 2.43 2.01 2.11 2.24 2.13 2.01 1.91 1.95 1.75 1.49
0.64 0.70 0.87 1.13 1.18 1.27 1.32 1.50 1.46 1.37 1.36 1.47 1.59 1.59 1.63 1.72 1.97 2.11 2.04 2.06 2.08 2.03 1.84 1.66 1.48 1.29 1.20 1.18 1.31 1.44 1.73 2.09 2.09 1.68 1.55 1.72 1.67 1.91 1.82 1.79 1.73 1.51 1.25
0.63 0.71 0.74 1.01 1.11 1.26 1.40 1.52 1.47 1.36 1.28 1.34 1.42 1.41 1.54 1.79 2.04 2.17 2.18 2.14 2.06 1.98 1.73 1.53 1.38 1.24 1.17 1.21 1.37 1.41 1.65 1.98 1.75 1.46 1.41 1.57 1.40 1.58 1.71 1.72 1.70 1.45 1.18
0.60 0.73 0.81 0.99 1.05 1.15 1.33 1.55 1.60 1.41 1.31 1.36 1.48 1.47 1.56 1.81 2.05 2.18 2.29 2.32 2.15 1.99 1.68 1.49 1.28 1.15 1.14 1.22 1.37 1.42 1.55 1.57 1.32 1.19 1.19 1.24 1.22 1.36 1.58 1.50 1.48 1.36 1.12
0.70 0.72 0.84 0.91 1.04 1.12 1.29 1.56 1.63 1.56 1.45 1.53 1.68 1.59 1.65 1.84 2.05 2.16 2.29 2.33 2.16 2.00 1.71 1.47 1.23 1.08 1.11 1.16 1.31 1.38 1.47 1.53 1.30 1.29 1.17 1.08 1.05 1.23 1.50 1.38 1.31 1.33 1.19
0.96 0.82 0.85 0.86 1.07 1.21 1.25 1.43 1.65 1.60 1.53 1.58 1.68 1.70 1.95 2.08 2.13 2.18 2.33 2.37 2.20 1.99 1.67 1.51 1.29 1.12 1.11 1.12 1.25 1.40 1.54 1.45 1.33 1.37 1.23 0.89 0.98 1.28 1.56 1.55 1.51 1.52 1.35
1.21 1.15 1.12 1.02 1.02 1.18 1.21 1.33 1.76 1.81 1.77 1.78 1.84 2.09 2.40 2.70 2.69 2.73 2.64 2.60 2.46 2.16 1.93 1.77 1.59 1.35 1.25 1.16 1.41 1.54 1.39 1.43 1.62 1.53 1.27 0.94 1.03 1.51 1.75 1.79 1.72 1.69 1.63
1.45 1.42 1.55 1.34 1.13 1.11 1.12 1.64 2.28 2.24 2.23 2.33 2.46 2.58 2.93 3.15 3.39 2.93 3.14 3.17 3.08 2.87 2.56 2.40 2.31 1.86 1.41 1.20 1.49 1.64 1.45 1.46 1.62 1.38 1.12 1.05 1.20 1.65 1.90 1.82 1.78 1.75 1.71
1.82 1.64 1.54 1.60 1.55 1.55 1.66 1.80 2.10 2.51 2.69 2.77 2.78 2.78 3.04 2.95 3.05 3.02 3.34 3.75 3.67 3.13 2.68 2.76 2.72 2.13 1.91 2.07 2.02 1.83 1.71 1.54 1.61 1.39 1.27 1.31 1.44 1.82 2.07 1.93 1.92 1.86 1.66
2.43 2.38 2.38 2.26 2.20 2.21 2.07 1.91 1.95 2.18 2.28 2.34 2.44 2.50 2.71 3.03 3.11 3.24 3.52 3.47 3.36 3.08 3.13 2.92 2.96 2.68 2.43 2.23 2.14 2.22 2.15 1.88 1.82 1.77 1.75 1.71 1.78 2.02 2.23 2.12 2.02 2.00 1.87
2.94 3.20 3.74 3.65 3.11 2.79 2.53 2.25 1.91 2.05 1.93 1.74 1.93 2.26 2.40 2.62 2.92 3.09 2.97 2.96 2.63 2.64 2.85 2.92 2.61 2.75 2.65 2.60 2.49 2.43 2.44 2.16 1.97 1.93 1.99 2.16 2.12 2.10 2.30 2.38 2.28 2.24 2.20
3.79 3.84 4.05 4.60 3.97 3.28 2.78 2.47 2.22 2.03 2.07 1.89 2.00 1.98 2.22 2.42 2.51 2.59 2.53 2.61 2.44 2.46 2.54 2.52 2.48 2.76 2.82 2.72 2.36 2.16 2.15 2.16 2.06 1.95 2.13 2.24 2.25 2.06 2.19 2.52 2.69 2.65 2.66
4.36 4.50 4.60 4.93 4.63 4.12 3.58 3.01 2.54 2.34 2.16 2.13 2.18 1.93 1.98 2.15 2.20 2.29 2.32 2.30 2.34 2.26 2.24 2.18 2.23 2.44 2.41 2.36 2.18 2.01 2.03 2.06 2.10 2.09 2.06 2.17 2.20 2.23 2.21 2.38 2.63 2.72 2.90
5.03 5.27 5.31 5.09 5.09 4.73 4.10 3.53 3.12 2.87 2.58 2.32 2.13 1.96 1.78 1.88 1.94 2.08 2.00 1.99 2.00 1.94 1.92 2.07 2.10 2.24 2.36 2.41 2.40 2.13 2.17 2.21 2.06 2.15 2.16 2.15 2.44 2.23 2.47 2.61 2.62 2.60 2.96
6.20 6.64 6.42 5.79 5.39 4.93 4.37 3.89 3.73 3.55 3.12 2.62 2.38 2.19 2.02 1.84 1.81 1.93 2.00 2.05 1.76 1.78 1.83 1.72 2.01 2.15 2.39 2.44 2.05 2.11 1.97 1.96 1.97 1.83 2.07 1.99 2.19 2.32 2.54 2.59 2.66 2.57 2.93
6.53 7.25 7.15 6.51 5.71 5.04 4.69 4.27 4.11 3.79 3.31 2.74 2.48 2.39 2.12 2.00 1.80 1.86 1.78 1.72 1.53 1.69 1.90 2.00 2.40 2.31 2.21 2.22 1.83 2.06 1.89 1.63 1.72 1.82 1.81 1.94 2.04 1.90 2.19 2.53 2.76 2.32 2.67
5.55 6.14 6.02 5.42 4.97 4.47 4.00 3.46 3.39 3.19 2.88 2.58 2.30 2.04 2.01 1.96 1.81 1.89 1.80 1.92 1.65 1.69 1.75 1.72 1.96 2.08 1.98 1.97 2.32 2.43 2.01 1.62 1.67 1.68 1.68 1.92 1.98 1.99 2.33 2.76 2.90 2.80 2.44
4.06 4.32 3.81 3.61 3.63 3.34 3.12 3.04 2.95 2.79 2.48 2.25 2.09 2.07 1.72 1.72 1.70 1.63 1.88 1.78 1.70 1.85 1.84 1.82 1.97 2.07 2.00 2.05 2.28 2.58 2.32 2.28 1.99 1.48 1.71 1.84 1.87 2.10 2.21 2.36 2.69 2.97 2.65
2.87 2.85 2.62 2.55 2.88 2.90 2.91 2.91 2.85 2.81 2.65 2.39 2.08 2.05 1.70 1.55 1.57 1.67 1.69 1.80 1.87 1.60 1.82 1.94 1.90 1.97 2.04 1.97 1.99 2.33 2.35 2.34 2.06 1.59 1.53 1.60 1.79 2.10 2.17 2.30 2.17 2.40 2.59
1.95 2.07 2.33 2.41 2.55 2.50 2.62 2.54 2.38 2.15 2.01 1.91 1.85 1.91 1.90 1.68 1.56 1.48 1.56 1.81 1.92 1.69 1.90 1.55 1.66 1.93 2.05 1.91 1.94 1.83 1.81 1.98 2.13 2.07 1.77 1.60 1.70 1.87 2.02 2.11 2.24 2.42 2.53
1.53 1.78 2.19 2.29 2.33 2.27 2.25 2.31 2.42 2.30 2.24 2.08 2.01 2.19 2.16 2.13 1.91 1.57 1.57 1.79 1.93 1.88 1.93 1.80 2.02 1.85 1.77 1.75 1.80 1.84 1.86 1.81 1.69 1.97 2.09 1.94 1.79 1.58 1.62 1.74 1.86 1.97 2.04
1.39 1.50 1.76 1.92 2.09 2.15 2.20 2.30 2.28 2.29 2.40 2.22 2.08 2.01 1.95 2.00 1.96 1.83 1.79 1.99 1.98 1.93 1.98 1.92 1.96 1.84 1.82 1.83 1.76 1.72 1.98 1.99 1.85 1.99 1.89 1.87 1.81 1.42 1.37 1.48 1.55 1.64 1.77

GEFSSE_prec_meanprecacc_252.txt.gz
Total_Precipitation_Accumulation
1.24 1.73 2.56 2.69 2.48 2.34 2.27 2.34 2.41 2.27 2.24 2.20 2.15 2.17 2.26 2.30 2.39 2.36 2.26 2.28 2.31 2.34 2.21 1.98 1.86 1.78 1.80 1.85 1.77 1.62 1.52 1.50 1.72 1.87 2.03 2.19 2.39 2.56 2.70 2.84 2.75 2.16 2.05
1.04 1.56 2.32 2.41 2.15 2.00 2.08 2.07 2.14 2.05 1.98 2.02 2.05 2.05 1.95 1.97 2.08 2.11 2.10 2.19 2.21 2.22 2.04 1.90 1.72 1.55 1.56 1.56 1.56 1.40 1.39 1.69 2.04 2.28 2.62 2.71 2.78 2.77 2.76 2.84 2.83 2.22 2.04
0.95 1.28 1.85 2.06 1.95 1.90 1.89 1.77 1.82 1.83 1.80 1.98 2.01 1.98 1.86 1.80 1.99 2.10 2.12 2.09 2.21 2.16 1.90 1.79 1.58 1.40 1.40 1.42 1.34 1.31 1.45 1.84 2.41 2.82 2.97 2.67 2.34 2.59 2.64 2.73 2.61 2.05 1.93
0.84 0.99 1.34 1.70 1.73 1.67 1.64 1.64 1.66 1.63 1.64 1.79 1.81 1.83 1.81 1.77 1.98 2.15 2.10 2.06 2.23 2.06 1.87 1.70 1.55 1.35 1.25 1.27 1.30 1.39 1.59 1.94 2.40 2.88 2.73 2.36 1.98 2.17 2.31 2.21 2.12 1.87 1.76
0.73 0.81 1.13 1.44 1.48 1.49 1.50 1.64 1.62 1.49 1.48 1.63 1.72 1.74 1.77 1.83 1.98 2.14 2.09 2.08 2.22 2.20 2.00 1.76 1.59 1.36 1.29 1.24 1.25 1.43 1.69 2.05 2.41 2.50 2.06 2.13 2.26 2.16 2.03 1.93 1.96 1.76 1.50
0.71 0.80 1.07 1.31 1.29 1.36 1.40 1.61 1.57 1.48 1.43 1.53 1.65 1.65 1.70 1.80 2.04 2.21 2.14 2.14 2.16 2.10 1.89 1.70 1.51 1.32 1.23 1.21 1.35 1.50 1.80 2.15 2.15 1.71 1.58 1.75 1.69 1.92 1.83 1.80 1.74 1.52 1.26
0.73 0.88 0.98 1.23 1.29 1.40 1.54 1.67 1.59 1.45 1.35 1.41 1.48 1.45 1.60 1.86 2.11 2.29 2.32 2.26 2.18 2.08 1.80 1.60 1.44 1.27 1.20 1.25 1.41 1.48 1.72 2.03 1.78 1.49 1.44 1.59 1.42 1.60 1.72 1.73 1.71 1.45 1.18
0.70 0.90 0.99 1.23 1.32 1.39 1.53 1.70 1.70 1.49 1.40 1.43 1.54 1.51 1.62 1.88 2.13 2.29 2.47 2.47 2.30 2.12 1.78 1.57 1.34 1.19 1.19 1.28 1.43 1.49 1.64 1.64 1.37 1.25 1.24 1.27 1.24 1.38 1.59 1.51 1.48 1.36 1.13
0.78 0.84 0.96 1.06 1.26 1.35 1.49 1.70 1.73 1.64 1.55 1.61 1.75 1.63 1.70 1.92 2.12 2.25 2.47 2.44 2.28 2.12 1.82 1.57 1.30 1.13 1.18 1.26 1.40 1.49 1.62 1.65 1.38 1.37 1.23 1.11 1.07 1.25 1.51 1.39 1.32 1.33 1.19
1.04 0.90 0.92 0.93 1.18 1.32 1.37 1.57 1.80 1.71 1.64 1.67 1.75 1.76 2.03 2.18 2.21 2.27 2.44 2.45 2.30 2.10 1.78 1.63 1.38 1.19 1.24 1.27 1.41 1.60 1.74 1.58 1.43 1.46 1.29 0.92 1.01 1.29 1.57 1.56 1.52 1.52 1.35
1.24 1.19 1.18 1.09 1.09 1.25 1.30 1.50 1.98 1.98 1.90 1.89 1.95 2.18 2.49 2.78 2.76 2.81 2.71 2.69 2.60 2.32 2.08 1.91 1.73 1.45 1.36 1.29 1.56 1.73 1.56 1.54 1.73 1.62 1.32 0.97 1.06 1.53 1.78 1.80 1.73 1.70 1.65
1.48 1.45 1.60 1.39 1.19 1.21 1.27 1.85 2.51 2.40 2.34 2.43 2.55 2.66 2.99 3.19 3.45 3.01 3.24 3.29 3.26 3.08 2.78 2.58 2.48 2.01 1.50 1.27 1.55 1.71 1.51 1.53 1.71 1.46 1.18 1.09 1.22 1.67 1.93 1.84 1.80 1.77 1.73
1.87 1.68 1.57 1.64 1.59 1.63 1.80 1.98 2.29 2.63 2.76 2.84 2.86 2.85 3.11 3.02 3.12 3.10 3.44 3.89 3.85 3.29 2.83 2.90 2.84 2.26 1.99 2.12 2.07 1.87 1.74 1.58 1.68 1.44 1.33 1.35 1.47 1.84 2.10 1.95 1.94 1.88 1.69
2.45 2.40 2.40 2.28 2.23 2.27 2.17 2.04 2.11 2.29 2.36 2.43 2.55 2.60 2.82 3.14 3.21 3.32 3.56 3.51 3.42 3.13 3.21 2.98 3.01 2.74 2.49 2.29 2.20 2.27 2.18 1.92 1.88 1.85 1.80 1.74 1.81 2.04 2.25 2.14 2.03 2.01 1.89
2.94 3.21 3.74 3.66 3.13 2.84 2.59 2.33 2.03 2.19 2.06 1.87 2.04 2.36 2.52 2.72 2.99 3.13 3.00 2.99 2.65 2.68 2.91 2.98 2.65 2.79 2.71 2.65 2.54 2.46 2.47 2.19 2.02 1.97 2.02 2.20 2.14 2.12 2.32 2.40 2.30 2.26 2.22
3.79 3.84 4.05 4.61 3.99 3.32 2.83 2.54 2.31 2.16 2.21 2.01 2.09 2.09 2.34 2.51 2.58 2.63 2.57 2.65 2.47 2.50 2.59 2.58 2.53 2.80 2.87 2.75 2.39 2.18 2.18 2.18 2.10 1.98 2.16 2.28 2.27 2.07 2.20 2.54 2.72 2.68 2.69
4.36 4.51 4.61 4.94 4.65 4.17 3.62 3.05 2.57 2.39 2.23 2.20 2.26 2.03 2.08 2.22 2.24 2.32 2.35 2.35 2.39 2.30 2.29 2.25 2.29 2.50 2.49 2.40 2.20 2.02 2.05 2.08 2.12 2.11 2.09 2.20 2.24 2.26 2.23 2.40 2.65 2.74 2.93
5.03 5.28 5.32 5.10 5.11 4.76 4.13 3.56 3.17 2.93 2.67 2.41 2.21 2.04 1.86 1.94 1.97 2.10 2.02 2.02 2.05 1.99 1.98 2.15 2.19 2.32 2.44 2.47 2.43 2.15 2.19 2.23 2.08 2.17 2.18 2.18 2.49 2.27 2.50 2.64 2.64 2.61 2.98
6.21 6.64 6.43 5.80 5.42 4.97 4.41 3.93 3.78 3.60 3.20 2.75 2.49 2.28 2.08 1.89 1.83 1.94 2.02 2.08 1.80 1.85 1.92 1.81 2.09 2.22 2.46 2.50 2.09 2.12 1.99 1.98 2.00 1.86 2.11 2.04 2.23 2.35 2.58 2.62 2.69 2.59 2.95
6.54 7.26 7.17 6.53 5.73 5.07 4.73 4.32 4.16 3.83 3.37 2.85 2.62 2.48 2.19 2.03 1.83 1.89 1.81 1.76 1.57 1.76 2.01 2.11 2.50 2.41 2.31 2.30 1.89 2.10 1.92 1.67 1.76 1.87 1.87 2.03 2.09 1.93 2.23 2.56 2.78 2.33 2.69
5.57 6.15 6.04 5.44 4.98 4.48 4.02 3.51 3.45 3.24 2.93 2.65 2.38 2.12 2.07 1.99 1.84 1.93 1.84 1.95 1.69 1.75 1.82 1.81 2.06 2.19 2.09 2.08 2.43 2.51 2.07 1.69 1.72 1.74 1.74 1.99 2.03 2.04 2.37 2.79 2.95 2.84 2.47
4.08 4.33 3.82 3.62 3.64 3.34 3.13 3.09 3.03 2.85 2.53 2.29 2.13 2.10 1.75 1.75 1.74 1.67 1.92 1.80 1.73 1.89 1.89 1.90 2.06 2.16 2.08 2.13 2.38 2.69 2.43 2.37 2.05 1.53 1.78 1.92 1.93 2.14 2.25 2.41 2.73 3.02 2.70
2.88 2.86 2.62 2.57 2.89 2.91 2.92 2.95 2.96 2.92 2.73 2.45 2.11 2.07 1.73 1.58 1.62 1.71 1.72 1.81 1.89 1.62 1.84 1.98 1.96 2.05 2.12 2.07 2.09 2.45 2.46 2.44 2.14 1.65 1.60 1.68 1.86 2.16 2.21 2.36 2.23 2.46 2.65
1.96 2.08 2.34 2.42 2.56 2.51 2.63 2.55 2.46 2.28 2.11 1.98 1.89 1.93 1.92 1.71 1.63 1.55 1.59 1.83 1.95 1.71 1.91 1.56 1.68 1.96 2.11 1.97 2.02 1.91 1.89 2.04 2.20 2.13 1.84 1.67 1.76 1.92 2.06 2.15 2.30 2.48 2.59
1.53 1.78 2.19 2.29 2.34 2.28 2.26 2.32 2.44 2.38 2.37 2.20 2.08 2.23 2.20 2.18 1.95 1.61 1.60 1.82 1.97 1.92 1.98 1.84 2.04 1.87 1.79 1.78 1.85 1.90 1.92 1.86 1.75 2.01 2.13 1.99 1.85 1.65 1.69 1.79 1.93 2.05 2.11
1.39 1.50 1.77 1.93 2.11 2.16 2.21 2.31 2.29 2.31 2.46 2.35 2.20 2.09 2.00 2.04 1.99 1.85 1.82 2.03 2.02 1.99 2.08 2.03 2.03 1.90 1.86 1.86 1.78 1.77 2.04 2.04 1.90 2.03 1.93 1.90 1.83 1.48 1.44 1.54 1.63 1.71 1.84

GEFSSE_prec_meanprecacc_258.txt.gz
Total_Precipitation_Accumulation
1.36 1.88 2.80 3.00 2.77 2.51 2.39 2.43 2.48 2.35 2.32 2.28 2.25 2.23 2.31 2.37 2.46 2.44 2.32 2.35 2.38 2.40 2.28 2.04 1.91 1.82 1.85 1.90 1.83 1.67 1.55 1.52 1.75 1.91 2.07 2.21 2.41 2.58 2.72 2.86 2.77 2.17 2.07
1.15 1.70 2.50 2.59 2.34 2.15 2.20 2.16 2.21 2.12 2.05 2.10 2.14 2.11 2.01 2.05 2.17 2.19 2.18 2.27 2.27 2.29 2.11 1.96 1.77 1.58 1.60 1.61 1.60 1.43 1.41 1.70 2.07 2.32 2.65 2.74 2.80 2.79 2.78 2.86 2.85 2.25 2.07
1.03 1.41 2.01 2.19 2.09 2.03 2.00 1.86 1.90 1.89 1.87 2.05 2.10 2.04 1.91 1.87 2.09 2.21 2.21 2.18 2.28 2.23 1.96 1.84 1.62 1.43 1.44 1.46 1.38 1.35 1.47 1.86 2.43 2.84 2.99 2.68 2.36 2.61 2.67 2.76 2.64 2.09 1.95
0.90 1.11 1.48 1.82 1.84 1.78 1.74 1.73 1.74 1.70 1.72 1.87 1.90 1.91 1.88 1.86 2.08 2.27 2.18 2.14 2.30 2.12 1.92 1.74 1.59 1.39 1.28 1.32 1.34 1.43 1.62 1.96 2.42 2.89 2.73 2.36 1.99 2.19 2.33 2.23 2.15 1.90 1.79
0.80 0.91 1.25 1.57 1.58 1.59 1.61 1.74 1.72 1.58 1.56 1.70 1.81 1.85 1.87 1.92 2.08 2.25 2.15 2.15 2.28 2.26 2.05 1.79 1.62 1.39 1.32 1.28 1.29 1.46 1.72 2.07 2.43 2.52 2.06 2.14 2.27 2.17 2.04 1.95 1.98 1.78 1.52
0.78 0.91 1.18 1.42 1.39 1.47 1.49 1.69 1.66 1.58 1.51 1.59 1.74 1.74 1.81 1.90 2.13 2.31 2.22 2.22 2.23 2.17 1.94 1.74 1.54 1.34 1.26 1.25 1.38 1.53 1.84 2.19 2.16 1.72 1.59 1.76 1.70 1.94 1.84 1.82 1.75 1.53 1.27
0.81 0.98 1.09 1.33 1.41 1.52 1.65 1.78 1.69 1.56 1.42 1.47 1.56 1.55 1.69 1.96 2.22 2.41 2.44 2.37 2.26 2.15 1.86 1.65 1.47 1.30 1.23 1.29 1.46 1.53 1.78 2.06 1.79 1.49 1.45 1.60 1.43 1.62 1.75 1.75 1.72 1.46 1.19
0.78 1.03 1.15 1.38 1.46 1.51 1.63 1.81 1.83 1.61 1.48 1.50 1.62 1.59 1.70 1.96 2.23 2.41 2.59 2.58 2.41 2.20 1.84 1.61 1.38 1.23 1.23 1.33 1.48 1.53 1.67 1.67 1.38 1.26 1.24 1.27 1.25 1.40 1.62 1.53 1.50 1.37 1.14
0.88 1.00 1.15 1.32 1.44 1.49 1.60 1.81 1.83 1.75 1.64 1.69 1.82 1.70 1.79 2.03 2.22 2.36 2.63 2.59 2.40 2.20 1.87 1.61 1.35 1.19 1.24 1.31 1.45 1.53 1.65 1.70 1.40 1.38 1.23 1.12 1.09 1.28 1.54 1.41 1.33 1.34 1.21
1.11 1.02 1.09 1.20 1.42 1.47 1.52 1.72 1.89 1.80 1.73 1.76 1.83 1.84 2.15 2.32 2.34 2.39 2.63 2.66 2.44 2.20 1.85 1.70 1.47 1.27 1.32 1.34 1.46 1.65 1.81 1.65 1.45 1.47 1.29 0.93 1.02 1.32 1.60 1.59 1.54 1.54 1.38
1.30 1.30 1.34 1.27 1.28 1.38 1.42 1.65 2.12 2.09 2.00 1.99 2.06 2.31 2.61 2.87 2.86 2.92 2.88 2.91 2.76 2.43 2.19 2.04 1.86 1.58 1.48 1.39 1.64 1.81 1.64 1.59 1.76 1.64 1.33 0.99 1.08 1.57 1.81 1.84 1.76 1.73 1.68
1.51 1.51 1.68 1.48 1.30 1.33 1.36 1.99 2.69 2.52 2.40 2.49 2.62 2.76 3.09 3.25 3.50 3.08 3.38 3.48 3.42 3.23 2.92 2.75 2.66 2.16 1.64 1.40 1.66 1.81 1.58 1.57 1.75 1.50 1.21 1.12 1.25 1.71 1.97 1.88 1.84 1.80 1.77
1.89 1.71 1.62 1.70 1.68 1.73 1.88 2.12 2.43 2.73 2.81 2.89 2.90 2.91 3.17 3.07 3.17 3.16 3.57 4.16 4.07 3.48 3.00 3.09 3.02 2.38 2.09 2.25 2.18 1.95 1.82 1.65 1.73 1.49 1.36 1.38 1.50 1.87 2.13 1.99 1.97 1.91 1.72
2.46 2.42 2.43 2.31 2.29 2.34 2.23 2.13 2.18 2.34 2.42 2.47 2.59 2.65 2.87 3.19 3.26 3.39 3.65 3.64 3.58 3.32 3.38 3.12 3.11 2.81 2.55 2.37 2.30 2.35 2.26 2.01 1.94 1.90 1.85 1.78 1.83 2.07 2.29 2.17 2.06 2.05 1.94
2.96 3.23 3.76 3.68 3.18 2.88 2.63 2.40 2.08 2.22 2.10 1.91 2.08 2.42 2.58 2.78 3.06 3.20 3.05 3.02 2.69 2.78 3.02 3.08 2.71 2.85 2.76 2.71 2.62 2.52 2.54 2.27 2.09 2.03 2.06 2.24 2.17 2.14 2.34 2.43 2.34 2.30 2.26
3.81 3.86 4.06 4.63 4.03 3.39 2.90 2.62 2.36 2.20 2.25 2.05 2.15 2.16 2.43 2.58 2.65 2.69 2.61 2.67 2.49 2.52 2.63 2.65 2.59 2.87 2.94 2.82 2.46 2.24 2.24 2.24 2.15 2.03 2.21 2.31 2.31 2.09 2.22 2.57 2.76 2.72 2.74
4.38 4.52 4.62 4.96 4.68 4.23 3.69 3.11 2.62 2.42 2.26 2.25 2.34 2.13 2.18 2.29 2.28 2.35 2.38 2.36 2.40 2.31 2.30 2.27 2.33 2.56 2.57 2.47 2.27 2.07 2.09 2.12 2.15 2.15 2.12 2.23 2.27 2.30 2.26 2.43 2.68 2.78 2.98
5.04 5.29 5.32 5.11 5.14 4.81 4.21 3.63 3.21 2.97 2.71 2.46 2.29 2.14 1.95 2.00 2.00 2.12 2.04 2.03 2.07 2.01 2.00 2.17 2.23 2.39 2.52 2.54 2.49 2.19 2.22 2.25 2.09 2.19 2.20 2.20 2.52 2.31 2.53 2.68 2.69 2.66 3.03
6.22 6.66 6.44 5.81 5.44 5.00 4.47 3.99 3.82 3.64 3.25 2.82 2.57 2.35 2.14 1.94 1.86 1.96 2.03 2.09 1.81 1.87 1.96 1.85 2.14 2.29 2.54 2.56 2.14 2.15 2.00 2.00 2.01 1.87 2.12 2.06 2.26 2.38 2.61 2.65 2.74 2.65 3.01
6.56 7.28 7.18 6.53 5.74 5.08 4.76 4.36 4.20 3.88 3.44 2.95 2.74 2.58 2.25 2.08 1.87 1.91 1.82 1.77 1.58 1.77 2.04 2.15 2.55 2.47 2.39 2.38 1.95 2.13 1.95 1.70 1.78 1.90 1.92 2.07 2.12 1.97 2.27 2.60 2.84 2.38 2.74
5.58 6.16 6.06 5.45 4.98 4.49 4.05 3.55 3.49 3.29 2.99 2.73 2.50 2.27 2.17 2.05 1.88 1.96 1.85 1.96 1.70 1.76 1.86 1.87 2.12 2.25 2.16 2.18 2.52 2.59 2.13 1.73 1.76 1.77 1.78 2.05 2.09 2.10 2.45 2.86 3.02 2.90 2.50
4.09 4.34 3.83 3.64 3.65 3.36 3.17 3.12 3.06 2.90 2.58 2.34 2.20 2.23 1.88 1.81 1.78 1.71 1.94 1.81 1.74 1.91 1.92 1.95 2.14 2.25 2.17 2.22 2.47 2.80 2.52 2.44 2.10 1.55 1.81 1.96 1.98 2.21 2.31 2.47 2.80 3.08 2.74
2.89 2.87 2.64 2.58 2.90 2.93 2.99 3.00 2.99 2.97 2.78 2.50 2.18 2.17 1.83 1.64 1.67 1.76 1.76 1.84 1.91 1.65 1.87 2.01 2.02 2.16 2.24 2.19 2.20 2.56 2.56 2.52 2.19 1.68 1.62 1.72 1.92 2.21 2.25 2.40 2.28 2.50 2.70
1.99 2.10 2.36 2.44 2.57 2.53 2.67 2.60 2.50 2.31 2.16 2.04 1.95 2.01 2.00 1.77 1.67 1.60 1.64 1.88 2.00 1.76 1.96 1.60 1.71 2.01 2.18 2.09 2.15 2.02 1.97 2.11 2.26 2.17 1.87 1.71 1.80 1.95 2.08 2.18 2.32 2.51 2.64
1.62 1.84 2.21 2.31 2.35 2.29 2.28 2.37 2.50 2.44 2.42 2.27 2.15 2.30 2.26 2.23 2.01 1.66 1.65 1.87 2.03 1.99 2.04 1.88 2.07 1.90 1.83 1.83 1.91 1.96 1.98 1.90 1.79 2.05 2.17 2.03 1.88 1.68 1.71 1.81 1.95 2.07 2.14
1.46 1.55 1.79 1.94 2.12 2.17 2.23 2.34 2.33 2.36 2.51 2.44 2.32 2.19 2.07 2.11 2.06 1.91 1.85 2.07 2.07 2.04 2.13 2.07 2.07 1.94 1.90 1.89 1.82 1.80 2.07 2.08 1.93 2.06 1.95 1.92 1.85 1.50 1.46 1.56 1.65 1.74 1.86

GEFSSE_prec_meanprecacc_264.txt.gz
Total_Precipitation_Accumulation
1.50 2.07 3.03 3.25 2.93 2.62 2.48 2.55 2.59 2.44 2.40 2.35 2.33 2.31 2.37 2.43 2.51 2.51 2.38 2.41 2.43 2.46 2.33 2.08 1.95 1.86 1.90 1.97 1.90 1.71 1.58 1.55 1.77 1.93 2.08 2.22 2.42 2.59 2.74 2.89 2.81 2.20 2.09
1.24 1.83 2.65 2.75 2.48 2.26 2.30 2.28 2.33 2.22 2.14 2.18 2.25 2.21 2.10 2.14 2.25 2.28 2.24 2.35 2.34 2.35 2.17 2.01 1.81 1.64 1.65 1.66 1.67 1.49 1.44 1.73 2.10 2.35 2.67 2.76 2.82 2.81 2.80 2.89 2.90 2.29 2.09
1.10 1.51 2.12 2.31 2.20 2.14 2.11 1.99 2.02 1.99 1.96 2.14 2.20 2.18 2.04 2.00 2.23 2.30 2.27 2.26 2.36 2.30 2.02 1.90 1.66 1.48 1.49 1.50 1.42 1.40 1.51 1.88 2.46 2.87 3.01 2.70 2.37 2.63 2.68 2.78 2.68 2.13 1.97
0.99 1.21 1.57 1.92 1.94 1.87 1.83 1.85 1.85 1.80 1.81 1.95 2.00 2.06 2.05 1.98 2.22 2.40 2.29 2.25 2.39 2.21 2.00 1.81 1.64 1.43 1.32 1.34 1.37 1.46 1.66 2.00 2.45 2.92 2.75 2.38 2.01 2.20 2.34 2.25 2.18 1.95 1.82
0.92 1.02 1.35 1.66 1.68 1.67 1.69 1.84 1.82 1.71 1.69 1.80 1.93 2.01 2.03 2.07 2.21 2.40 2.28 2.28 2.39 2.36 2.12 1.85 1.67 1.44 1.34 1.30 1.31 1.48 1.75 2.10 2.46 2.55 2.08 2.16 2.30 2.19 2.05 1.97 2.00 1.81 1.55
0.91 1.06 1.31 1.53 1.51 1.57 1.60 1.79 1.77 1.72 1.67 1.73 1.87 1.89 1.97 2.07 2.27 2.47 2.37 2.35 2.35 2.26 2.01 1.81 1.59 1.39 1.29 1.28 1.41 1.55 1.87 2.22 2.20 1.75 1.61 1.77 1.72 1.96 1.86 1.84 1.78 1.55 1.29
0.92 1.13 1.22 1.47 1.55 1.66 1.81 1.94 1.83 1.71 1.58 1.60 1.67 1.67 1.83 2.11 2.36 2.54 2.59 2.51 2.39 2.24 1.93 1.72 1.53 1.35 1.26 1.31 1.49 1.56 1.81 2.09 1.81 1.51 1.46 1.61 1.45 1.63 1.77 1.78 1.74 1.48 1.21
0.90 1.15 1.25 1.50 1.59 1.67 1.80 1.96 1.95 1.73 1.61 1.62 1.70 1.67 1.79 2.06 2.35 2.53 2.72 2.73 2.56 2.31 1.91 1.68 1.45 1.29 1.27 1.35 1.51 1.57 1.71 1.70 1.39 1.27 1.25 1.28 1.26 1.41 1.64 1.56 1.52 1.40 1.16
1.00 1.09 1.25 1.45 1.59 1.66 1.77 1.95 1.95 1.87 1.75 1.78 1.89 1.77 1.88 2.13 2.33 2.49 2.78 2.74 2.54 2.32 1.96 1.68 1.42 1.25 1.28 1.35 1.48 1.56 1.69 1.73 1.42 1.39 1.24 1.13 1.10 1.29 1.56 1.43 1.36 1.37 1.24
1.26 1.13 1.19 1.35 1.60 1.66 1.69 1.85 2.01 1.93 1.83 1.85 1.91 1.95 2.26 2.45 2.47 2.51 2.77 2.83 2.61 2.33 1.96 1.79 1.55 1.34 1.38 1.38 1.51 1.69 1.85 1.69 1.47 1.48 1.30 0.94 1.04 1.34 1.63 1.61 1.56 1.57 1.41
1.47 1.44 1.46 1.41 1.43 1.54 1.57 1.79 2.26 2.23 2.12 2.10 2.17 2.43 2.75 3.03 3.00 3.05 3.03 3.11 2.95 2.57 2.33 2.17 1.97 1.68 1.57 1.46 1.69 1.85 1.67 1.63 1.78 1.66 1.35 1.01 1.10 1.59 1.85 1.87 1.79 1.76 1.72
1.62 1.64 1.82 1.63 1.47 1.49 1.50 2.14 2.85 2.67 2.53 2.61 2.74 2.89 3.23 3.39 3.65 3.25 3.57 3.72 3.69 3.40 3.08 2.92 2.81 2.31 1.76 1.48 1.72 1.84 1.61 1.61 1.78 1.53 1.24 1.15 1.28 1.74 2.01 1.92 1.87 1.84 1.81
1.96 1.81 1.73 1.84 1.83 1.86 1.99 2.24 2.56 2.86 2.93 3.00 3.02 3.04 3.28 3.20 3.34 3.36 3.79 4.45 4.41 3.73 3.22 3.32 3.25 2.55 2.23 2.36 2.25 2.00 1.87 1.71 1.79 1.53 1.41 1.42 1.53 1.91 2.18 2.03 2.00 1.94 1.76
2.51 2.49 2.52 2.43 2.41 2.43 2.32 2.23 2.31 2.46 2.52 2.57 2.68 2.75 2.96 3.28 3.38 3.50 3.80 3.85 3.88 3.57 3.64 3.44 3.40 2.98 2.70 2.52 2.39 2.42 2.34 2.11 2.02 1.95 1.91 1.83 1.87 2.10 2.32 2.21 2.10 2.08 1.97
2.99 3.26 3.81 3.74 3.24 2.95 2.70 2.47 2.18 2.33 2.19 1.99 2.14 2.48 2.64 2.86 3.16 3.28 3.13 3.13 2.89 3.00 3.22 3.28 2.93 3.03 2.92 2.90 2.76 2.63 2.65 2.39 2.20 2.11 2.14 2.30 2.22 2.18 2.39 2.47 2.36 2.33 2.31
3.83 3.88 4.10 4.67 4.07 3.44 2.95 2.67 2.44 2.28 2.30 2.10 2.21 2.22 2.48 2.66 2.75 2.78 2.68 2.76 2.62 2.67 2.77 2.77 2.72 3.02 3.09 2.98 2.62 2.38 2.37 2.38 2.30 2.17 2.30 2.39 2.38 2.15 2.26 2.60 2.79 2.76 2.79
4.40 4.56 4.67 4.99 4.72 4.29 3.74 3.17 2.67 2.47 2.29 2.28 2.38 2.18 2.24 2.38 2.39 2.43 2.45 2.44 2.50 2.40 2.38 2.34 2.41 2.68 2.72 2.65 2.45 2.22 2.21 2.24 2.30 2.27 2.21 2.31 2.35 2.35 2.30 2.47 2.73 2.82 3.02
5.07 5.35 5.39 5.14 5.19 4.89 4.29 3.72 3.28 3.02 2.75 2.52 2.34 2.19 2.00 2.09 2.10 2.19 2.10 2.09 2.13 2.06 2.06 2.23 2.28 2.48 2.67 2.72 2.67 2.32 2.32 2.36 2.20 2.28 2.28 2.28 2.58 2.37 2.58 2.72 2.73 2.71 3.09
6.24 6.71 6.50 5.85 5.48 5.08 4.59 4.10 3.89 3.71 3.33 2.91 2.67 2.44 2.22 2.02 1.94 2.03 2.09 2.14 1.86 1.92 2.01 1.90 2.20 2.36 2.64 2.70 2.27 2.25 2.07 2.06 2.08 1.93 2.17 2.10 2.30 2.43 2.65 2.70 2.79 2.70 3.06
6.56 7.30 7.21 6.55 5.76 5.11 4.82 4.45 4.27 3.96 3.54 3.07 2.85 2.70 2.37 2.18 1.94 1.98 1.88 1.82 1.62 1.81 2.11 2.24 2.64 2.56 2.50 2.48 2.02 2.19 1.99 1.73 1.82 1.94 1.95 2.11 2.16 2.00 2.30 2.64 2.88 2.43 2.79
5.59 6.17 6.07 5.46 5.00 4.51 4.09 3.60 3.54 3.35 3.08 2.85 2.61 2.39 2.32 2.18 1.98 2.05 1.91 2.01 1.74 1.81 1.93 1.96 2.22 2.34 2.26 2.27 2.60 2.67 2.21 1.79 1.81 1.80 1.81 2.09 2.12 2.14 2.50 2.91 3.05 2.92 2.53
4.09 4.34 3.84 3.64 3.66 3.37 3.21 3.21 3.13 2.96 2.66 2.43 2.29 2.35 2.02 1.97 1.92 1.82 2.03 1.87 1.79 1.98 1.99 2.03 2.23 2.33 2.26 2.31 2.54 2.89 2.63 2.55 2.18 1.60 1.84 1.98 2.01 2.24 2.34 2.50 2.82 3.10 2.77
2.89 2.87 2.64 2.59 2.91 2.94 3.02 3.08 3.07 3.03 2.85 2.58 2.27 2.26 1.93 1.76 1.80 1.87 1.85 1.92 2.00 1.73 1.95 2.09 2.10 2.25 2.36 2.29 2.28 2.66 2.67 2.65 2.31 1.77 1.68 1.77 1.96 2.26 2.29 2.42 2.30 2.52 2.72
1.99 2.11 2.37 2.46 2.59 2.55 2.71 2.68 2.59 2.37 2.22 2.09 2.01 2.08 2.10 1.90 1.78 1.69 1.73 1.99 2.12 1.86 2.05 1.68 1.80 2.10 2.29 2.23 2.29 2.15 2.11 2.24 2.37 2.27 1.97 1.79 1.86 2.00 2.11 2.20 2.34 2.53 2.66
1.64 1.91 2.27 2.36 2.40 2.33 2.32 2.44 2.60 2.50 2.48 2.32 2.19 2.38 2.38 2.35 2.09 1.74 1.72 1.95 2.15 2.10 2.15 1.97 2.17 1.99 1.90 1.92 2.02 2.09 2.10 2.00 1.86 2.12 2.24 2.09 1.94 1.71 1.74 1.83 1.96 2.08 2.16
1.49 1.66 1.92 2.04 2.20 2.23 2.28 2.39 2.42 2.45 2.58 2.50 2.37 2.25 2.16 2.20 2.13 1.98 1.92 2.14 2.16 2.13 2.23 2.16 2.15 2.01 1.98 1.98 1.90 1.87 2.14 2.14 1.99 2.13 2.00 1.96 1.90 1.53 1.48 1.58 1.66 1.74 1.87

GEFSSE_prec_meanprecacc_270.txt.gz
Total_Precipitation_Accumulation
1.71 2.27 3.29 3.44 3.07 2.70 2.53 2.61 2.66 2.49 2.43 2.39 2.38 2.39 2.45 2.50 2.57 2.56 2.42 2.45 2.48 2.50 2.37 2.12 1.99 1.90 1.94 2.01 1.95 1.78 1.64 1.60 1.80 1.95 2.09 2.23 2.43 2.60 2.75 2.91 2.84 2.22 2.10
1.40 1.98 2.80 2.88 2.58 2.31 2.35 2.33 2.40 2.26 2.20 2.25 2.32 2.29 2.17 2.21 2.32 2.35 2.30 2.40 2.39 2.39 2.22 2.07 1.86 1.69 1.69 1.68 1.71 1.54 1.50 1.78 2.14 2.37 2.69 2.77 2.84 2.82 2.82 2.92 2.96 2.34 2.11
1.23 1.61 2.19 2.36 2.25 2.20 2.19 2.06 2.10 2.05 2.03 2.21 2.30 2.28 2.13 2.08 2.31 2.37 2.34 2.33 2.42 2.35 2.08 1.97 1.72 1.52 1.53 1.54 1.46 1.45 1.55 1.92 2.50 2.91 3.09 2.76 2.40 2.65 2.70 2.81 2.71 2.16 2.00
1.09 1.31 1.64 1.97 1.98 1.93 1.91 1.93 1.94 1.88 1.90 2.03 2.08 2.18 2.16 2.07 2.31 2.48 2.37 2.32 2.45 2.27 2.06 1.86 1.68 1.47 1.38 1.39 1.41 1.50 1.69 2.04 2.48 3.00 2.85 2.43 2.05 2.23 2.35 2.27 2.19 1.96 1.84
1.01 1.11 1.40 1.72 1.74 1.74 1.77 1.92 1.93 1.81 1.80 1.90 2.02 2.14 2.24 2.23 2.30 2.47 2.36 2.36 2.47 2.44 2.20 1.90 1.71 1.49 1.39 1.35 1.33 1.50 1.77 2.14 2.51 2.63 2.13 2.20 2.34 2.22 2.07 1.98 2.02 1.82 1.56
0.99 1.14 1.37 1.60 1.57 1.64 1.67 1.87 1.88 1.86 1.83 1.88 2.02 2.03 2.17 2.36 2.44 2.57 2.46 2.44 2.46 2.36 2.09 1.87 1.64 1.45 1.34 1.30 1.43 1.56 1.88 2.25 2.24 1.80 1.64 1.82 1.76 1.99 1.89 1.87 1.80 1.57 1.30
1.00 1.20 1.30 1.53 1.61 1.73 1.89 2.02 1.95 1.89 1.77 1.80 1.84 1.79 1.96 2.35 2.56 2.68 2.67 2.59 2.49 2.35 2.03 1.81 1.61 1.41 1.31 1.34 1.50 1.57 1.82 2.12 1.86 1.54 1.49 1.65 1.48 1.65 1.78 1.79 1.76 1.50 1.22
0.98 1.22 1.32 1.55 1.67 1.76 1.92 2.21 2.24 1.95 1.79 1.76 1.83 1.78 1.87 2.16 2.49 2.65 2.79 2.81 2.66 2.42 2.03 1.79 1.55 1.36 1.32 1.39 1.54 1.59 1.72 1.71 1.42 1.30 1.28 1.31 1.28 1.42 1.65 1.57 1.54 1.42 1.18
1.08 1.16 1.33 1.54 1.70 1.78 1.88 2.07 2.07 2.00 1.87 1.88 1.98 1.86 1.94 2.20 2.42 2.59 2.86 2.80 2.64 2.44 2.08 1.80 1.54 1.34 1.34 1.39 1.51 1.58 1.70 1.75 1.44 1.41 1.26 1.15 1.11 1.30 1.57 1.43 1.37 1.38 1.26
1.34 1.20 1.26 1.43 1.72 1.78 1.79 1.94 2.10 2.03 1.94 1.98 2.04 2.04 2.32 2.52 2.56 2.61 2.84 2.90 2.69 2.47 2.10 1.93 1.70 1.47 1.45 1.42 1.53 1.72 1.87 1.71 1.48 1.49 1.31 0.95 1.05 1.35 1.64 1.63 1.58 1.59 1.44
1.55 1.50 1.53 1.50 1.54 1.65 1.67 1.88 2.35 2.31 2.20 2.22 2.34 2.57 2.88 3.15 3.13 3.17 3.11 3.20 3.06 2.71 2.47 2.30 2.11 1.81 1.65 1.50 1.72 1.87 1.69 1.64 1.80 1.68 1.36 1.02 1.11 1.61 1.86 1.89 1.81 1.79 1.75
1.70 1.72 1.91 1.75 1.60 1.65 1.64 2.28 2.99 2.81 2.68 2.76 2.90 3.04 3.41 3.58 3.85 3.39 3.67 3.82 3.81 3.55 3.24 3.05 2.95 2.46 1.86 1.55 1.76 1.88 1.63 1.63 1.80 1.55 1.26 1.16 1.30 1.76 2.03 1.95 1.90 1.86 1.83
2.02 1.88 1.82 1.97 2.04 2.04 2.13 2.37 2.70 3.02 3.12 3.18 3.17 3.19 3.45 3.40 3.56 3.58 3.99 4.63 4.57 3.90 3.41 3.46 3.40 2.74 2.37 2.46 2.31 2.05 1.90 1.74 1.81 1.55 1.43 1.44 1.55 1.93 2.20 2.06 2.03 1.96 1.78
2.57 2.55 2.61 2.57 2.59 2.60 2.45 2.34 2.42 2.58 2.68 2.74 2.85 2.89 3.09 3.43 3.59 3.74 4.03 4.06 4.07 3.79 3.85 3.62 3.55 3.18 2.88 2.66 2.49 2.49 2.37 2.14 2.04 1.97 1.94 1.85 1.88 2.12 2.34 2.24 2.12 2.10 1.99
3.06 3.34 3.91 3.87 3.37 3.08 2.82 2.57 2.28 2.46 2.33 2.15 2.31 2.63 2.76 2.97 3.31 3.45 3.32 3.35 3.09 3.18 3.40 3.44 3.08 3.21 3.10 3.05 2.89 2.72 2.70 2.44 2.22 2.15 2.19 2.33 2.24 2.21 2.40 2.49 2.39 2.35 2.33
3.89 3.95 4.17 4.75 4.16 3.53 3.03 2.74 2.52 2.36 2.44 2.24 2.33 2.32 2.57 2.76 2.86 2.91 2.82 2.93 2.79 2.82 2.90 2.88 2.81 3.16 3.24 3.13 2.75 2.49 2.44 2.45 2.35 2.23 2.37 2.45 2.41 2.18 2.28 2.63 2.81 2.79 2.82
4.43 4.60 4.72 5.05 4.79 4.35 3.79 3.21 2.73 2.53 2.36 2.37 2.48 2.26 2.32 2.46 2.49 2.54 2.58 2.58 2.61 2.49 2.47 2.43 2.49 2.78 2.84 2.75 2.54 2.31 2.29 2.32 2.38 2.35 2.28 2.37 2.40 2.39 2.33 2.48 2.75 2.84 3.05
5.08 5.37 5.41 5.17 5.24 4.94 4.36 3.79 3.34 3.08 2.82 2.59 2.41 2.26 2.08 2.16 2.19 2.29 2.20 2.18 2.19 2.12 2.12 2.31 2.35 2.56 2.77 2.83 2.78 2.41 2.40 2.44 2.29 2.36 2.35 2.33 2.64 2.42 2.63 2.75 2.75 2.73 3.12
6.25 6.73 6.52 5.87 5.52 5.13 4.66 4.20 3.99 3.80 3.43 2.99 2.75 2.52 2.32 2.12 2.03 2.12 2.18 2.23 1.93 1.97 2.07 1.96 2.25 2.42 2.72 2.80 2.37 2.35 2.16 2.13 2.15 1.99 2.22 2.15 2.36 2.48 2.69 2.74 2.82 2.73 3.09
6.57 7.32 7.23 6.57 5.78 5.15 4.88 4.53 4.36 4.06 3.65 3.17 2.93 2.79 2.47 2.30 2.05 2.08 1.97 1.90 1.70 1.88 2.19 2.32 2.71 2.64 2.57 2.55 2.10 2.29 2.07 1.79 1.87 1.99 1.99 2.15 2.20 2.04 2.35 2.70 2.92 2.46 2.82
5.59 6.18 6.09 5.48 5.01 4.54 4.14 3.65 3.60 3.43 3.18 2.96 2.71 2.48 2.43 2.31 2.11 2.17 1.99 2.08 1.82 1.88 2.00 2.04 2.31 2.43 2.35 2.35 2.68 2.76 2.29 1.85 1.88 1.86 1.85 2.13 2.16 2.17 2.55 2.96 3.07 2.95 2.56
4.10 4.35 3.85 3.66 3.69 3.41 3.25 3.25 3.18 3.05 2.75 2.53 2.40 2.49 2.17 2.13 2.07 1.92 2.12 1.93 1.86 2.05 2.06 2.11 2.33 2.43 2.34 2.39 2.64 3.00 2.73 2.66 2.28 1.66 1.90 2.04 2.06 2.30 2.40 2.54 2.85 3.16 2.80
2.90 2.88 2.65 2.61 2.93 2.98 3.06 3.13 3.14 3.11 2.94 2.69 2.41 2.42 2.08 1.88 1.90 1.99 1.96 2.02 2.10 1.81 2.04 2.19 2.20 2.38 2.47 2.38 2.38 2.77 2.80 2.80 2.44 1.86 1.75 1.84 2.03 2.34 2.35 2.47 2.34 2.58 2.77
2.00 2.12 2.38 2.48 2.62 2.58 2.75 2.73 2.66 2.44 2.29 2.18 2.11 2.18 2.19 1.97 1.86 1.81 1.88 2.16 2.26 1.97 2.18 1.77 1.89 2.20 2.40 2.33 2.39 2.25 2.21 2.37 2.55 2.42 2.07 1.86 1.95 2.09 2.19 2.24 2.37 2.56 2.71
1.64 1.92 2.29 2.40 2.44 2.37 2.36 2.49 2.68 2.58 2.55 2.39 2.28 2.48 2.46 2.43 2.17 1.85 1.86 2.11 2.30 2.24 2.27 2.08 2.28 2.08 1.99 2.00 2.10 2.17 2.19 2.12 1.97 2.24 2.35 2.20 2.03 1.78 1.78 1.86 2.00 2.11 2.19
1.51 1.68 1.94 2.08 2.27 2.30 2.35 2.45 2.49 2.53 2.65 2.57 2.47 2.37 2.25 2.28 2.21 2.06 2.02 2.27 2.27 2.23 2.33 2.25 2.24 2.09 2.06 2.06 1.98 1.94 2.23 2.23 2.09 2.23 2.09 2.06 1.99 1.59 1.52 1.60 1.68 1.76 1.90